User: anonymous   Login
Location: Unspecified
(0.0000°N, 0.0000°E)
Time: 17:59:33
(UTC+02:00)
Language:

CZ-4 DEB - Orbit

View from above orbital plane
View from above orbital plane
View from above satellite
View from above satellite

Ground track
Ground track

The orbit data is extracted from the following two-line orbital elements,

1 29508U 06046D   16243.24140447  .00035374  00000-0  55993-3 0  9998
2 29508  97.6424 288.3517 0000852  70.7553 289.3791 15.53362548540475
Epoch (UTC): 30 August 2016 05:47:37
Eccentricity: 0.0000852
inclination: 97.6424°
perigee height: 406 km
apogee height: 407 km
right ascension of ascending node: 288.3517°
argument of perigee: 70.7553°
revolutions per day: 15.53362548
mean anomaly at epoch: 289.3791°
orbit number at epoch: 54047

The dashed part of the orbit path shows where the satellite is in the earth's shadow,  

DLR